Printer-friendly version

IAU Minor Planet Center

Minor Planet Center

MPEC 2000-W12: 2000 UT16

The following Minor Planet Electronic Circular may be linked-to from your own Web pages, but must not otherwise be redistributed electronically.


Read MPEC 2000-W11 Read MPEC 2000-W13


M.P.E.C. 2000-W12                                Issued 2000 Nov. 21, 20:39 UT

     The Minor Planet Electronic Circulars contain information on unusual
         minor planets and routine data on comets.  They are published
   on behalf of Commission 20 of the International Astronomical Union by the
          Minor Planet Center, Smithsonian Astrophysical Observatory,
                          Cambridge, MA 02138, U.S.A.

             Prepared using the Tamkin Foundation Computer Network

                              MPC@CFA.HARVARD.EDU
          URL http://cfa-www.harvard.edu/iau/mpc.html  ISSN 1523-6714

                                   2000 UT16

                           Revision to MPEC 2000-U42

Observations:
     K00U16T 2 1996 11 14.40694 07 14 55.29 +17 20 28.2                      261
     K00U16T 2 1996 11 14.44514 07 14 53.80 +17 19 56.3                      261

Observer details:
261 Palomar-DSS.  Observers K. M. Rykoski, J. Mueller.  Trail located and
    measured by ANEOPP (G. Forti, A. Boattini, G. D'Abramo).  1.2-m Schmidt.

Orbital elements:
2000 UT16
Epoch 2000 Sept. 13.0 TT = JDT 2451800.5                Williams
M  11.94008              (2000.0)            P               Q
n   0.23873243     Peri.   91.37784     +0.88044999     +0.19511132
a   2.5735253      Node   257.51255     -0.33230968     +0.90402950
e   0.5084631      Incl.   26.27015     +0.33819829     +0.38034490
P   4.13           H   16.4           G   0.15           U   3
Residuals in seconds of arc
961114 261  0.8-  0.9-    001030 046  0.3+  0.2-    001106 046  0.3+  0.4-
961114 261  0.7+  0.8+    001030 046  0.1+  0.1+    001106 046  0.3+  0.5-
001025 704  1.5-  1.3+    001030 046  0.1+  0.1-    001106 046  0.5+  0.4-
001025 704  0.4-  0.6+    001030 046  0.3+  0.1+    001106 046  0.7+  0.1-
001025 704  0.4-  0.4+    001030 046  0.1+  0.2-    001106 704  0.2+  0.6+
001025 704  0.8-  0.7+    001030 711  0.8+  0.1+    001106 704  0.1-  0.1+
001025 704  0.7-  1.0+    001030 711  0.8+  0.4+    001106 704  0.4+  0.8-
001029 704  0.2-  0.1-    001030 711  0.7+  0.6+    001106 704  0.4+  0.5-
001029 704  0.1-  1.1-    001030 900  1.3+  0.6+    001109 118  0.6+  0.7-
001029 704  0.3-  0.9-    001030 900  1.0+  0.1-    001109 118  0.3+  0.9-
001029 704  0.5-  0.1+    001031 704  0.6-  0.1+    001118 360  0.3-  0.4-
001029 704  0.2+  0.1-    001031 704  0.1+  0.4-    001118 360  0.5-  0.1+
001029 704  0.3-  0.0     001031 704  0.2-  0.5-    001118 360  0.6-  0.0
001029 704  0.2-  0.3-    001031 670  0.4-  1.4+    001119 118  0.1+  0.3+
001029 704  0.2-  0.2+    001031 704  0.6-  0.6+    001119 118  0.1-  0.3+
001029 704  0.8+  0.7+    001031 670  1.3+  0.6-    001119 670  0.0   0.1-
001029 704  1.4-  1.4-    001101 704  0.0   0.4-    001120 704  0.0   0.3+
001029 704  0.1-  0.0     001101 704  0.4-  0.3-    001120 704  0.6+  0.3-
001029 704  0.2-  0.6+    001101 704  0.4-  0.1+    001120 704  0.6-  1.6+
001029 704  0.1-  0.0     001101 704  0.6-  0.4-    001120 704  0.2-  0.6+
001029 344  0.5+  0.1-    001102 704  0.1+  1.0-    001120 704  0.5-  0.2+
001029 344  0.6+  0.1-    001102 704  0.5-  0.6-
001029 344  0.6+  0.2-    001102 704  0.2-  0.2+

Ephemeris:
2000 UT16                a,e,i = 2.57, 0.51, 26                  q = 1.2650
Date    TT    R. A. (2000) Decl.     Delta      r     Elong.  Phase     V
2000 11 22    05 25.16   +31 13.1    0.808    1.758   156.2    13.1    17.9
2000 12 02    05 07.53   +26 48.3    0.840    1.820   170.9     4.9    17.7
2000 12 12    04 51.97   +22 36.4    0.902    1.884   174.1     3.1    17.9
2000 12 22    04 40.18   +19 00.0    0.992    1.947   160.5     9.7    18.5
2001 01 01    04 32.78   +16 10.2    1.108    2.010   147.9    15.1    19.0
2001 01 11    04 29.65   +14 06.5    1.245    2.073   136.6    19.0    19.4
2001 01 21    04 30.20   +12 42.0    1.400    2.135   126.3    21.8    19.8
2001 01 31    04 33.82   +11 47.8    1.567    2.197   117.0    23.6    20.2
2001 02 10    04 39.93   +11 15.4    1.743    2.257   108.4    24.5    20.5
2001 02 20    04 48.01   +10 58.0    1.925    2.317   100.4    24.8    20.8
2001 03 02    04 57.67   +10 49.9    2.111    2.376    92.8    24.6    21.0
2001 03 12    05 08.57   +10 46.9    2.298    2.434    85.7    24.0    21.3
2001 03 22    05 20.43   +10 45.7    2.483    2.491    78.9    23.1    21.5
2001 04 01    05 33.05   +10 44.0    2.665    2.547    72.3    22.0    21.6
2001 04 11    05 46.24   +10 39.9    2.842    2.601    66.0    20.6    21.8
2001 04 21    05 59.86   +10 32.0    3.012    2.654    59.9    19.1    21.9
2001 05 01    06 13.78   +10 19.5    3.175    2.707    53.9    17.5    22.0

Gareth V. Williams           (C) Copyright 2000 MPC           M.P.E.C. 2000-W12

Read MPEC 2000-W11 Read MPEC 2000-W13


Our Web policy. Index to the CBAT/MPC/ICQ pages.


Valid HTML 4.01!